Tracking 26492 objects as of 8-Dec-2022
HD Live streaming from Space Station
objects crossing your sky now

STARLINK-5148

Track STARLINK-5148 now!
10-day predictions
STARLINK-5148 is classified as:


NORAD ID: 53978
Int'l Code: 2022-125Q
Perigee: 545.6 km
Apogee: 548.2 km
Inclination: 53.2 °
Period: 95.4 minutes
Semi major axis: 6917 km
RCS: Unknown
Launch date: October 5, 2022
Source: United States (US)
Launch site: AIR FORCE WESTERN TEST RANGE (AFWTR)
aabbcc
Your satellite tracking list
Your tracking list is empty




NASA's NSSDC Master Catalog

Two Line Element Set (TLE):
1 53978U 22125Q   22341.93730079  .00000181  00000-0  29480-4 0  9991
2 53978  53.2152 151.0365 0001912  51.2901 308.8261 15.08838863 10159
Source of the keplerian elements: AFSPC